Tracking 20232 objects as of 21-Jan-2020
HD Live streaming from Space Station
objects crossing your sky now

OPS 7940

Track OPS 7940 now!
OPS 7940 is classified as:


NORAD ID: 9270
Int'l Code: 1976-080A
Perigee: 150.6 km
Apogee: 39,851.0 km
Inclination: 61.8 °
Period: 710.3 minutes
Semi major axis: 26371 km
RCS: Unknown
Launch date: August 6, 1976
Source: United States (US)
Launch site: AIR FORCE WESTERN TEST RANGE (AFWTR)
aabbcc
Your satellite tracking list
Your tracking list is empty




NASA's NSSDC Master Catalog

Two Line Element Set (TLE):
1  9270U 76080A   20002.69495372  .00035364 -33136-6  27348-3 0  9999
2  9270  61.8133  80.0971 7527058 273.0171  18.1322  2.02718393  2343
Source of the keplerian elements: AFSPC